Perry, IA

9:12 AM CDT on September 20, 2017 (GMT -0500)
Perry Municipal

Weather History for KPRO - November, 2014

Change the Weather History Date:

Saturday, November 22, 2014

  Actual Average Record
Temperature  
Mean Temperature 45 °F -  
Max Temperature 54 °F 43 °F 73 °F (1990)
Min Temperature 36 °F 22 °F 4 °F (1957)
Degree Days  
Heating Degree Days 20    
Moisture  
Dew Point 43 °F    
Average Humidity 92    
Maximum Humidity 100    
Minimum Humidity 67    
Precipitation  
Precipitation 0.00 in - - ()
Sea Level Pressure  
Sea Level Pressure 29.79 in    
Wind  
Wind Speed 12 mph (SSW)    
Max Wind Speed 22 mph    
Max Gust Speed 31 mph    
Visibility 6 miles    
Events      
Averages and records for this station are not official NWS values.
T = Trace of Precipitation, MM = Missing Value Source: NWS Daily Summary

Daily Weather History Graph

Daily Weather History Graph

Search for Another Location

Airport or City:

Trip Planner

Search our weather history database for the weather conditions in past years. The results will help you decide how hot, cold, wet, or windy it might be!

Date:

Astronomy

Nov. 22, 2014 Rise Set
Actual Time 7:14 AM CST 4:50 PM CST
Civil Twilight 6:44 AM CST 5:21 PM CST
Nautical Twilight 6:09 AM CST 5:55 PM CST
Astronomical Twilight 5:36 AM CST 6:28 PM CST
Moon 7:10 AM CST (11/22) 5:22 PM CST (11/22)
Length of Visible Light 10h 37m
Length of Day
9h 36m
New Moon, 0% of the Moon is Illuminated
Nov 22
New Moon
Nov 29
First Quarter
Dec 6
Full
Dec 14
Last Quarter
Dec 21
New

Hourly Weather History & Observations

Time (CST) Temp. Windchill Dew Point Humidity Pressure Visibility Wind Dir Wind Speed Gust Speed Precip Events Conditions
12:15 AM 36.5 °F 27.8 °F 34.7 °F 93% 29.97 in 5.0 mi South 13.8 mph - N/A   Overcast
12:35 AM 36.5 °F 27.8 °F 35.2 °F 95% 29.97 in 5.0 mi South 13.8 mph - N/A   Overcast
12:55 AM 36.5 °F 29.7 °F 35.6 °F 97% 29.97 in 5.0 mi South 9.2 mph - N/A   Overcast
1:15 AM 36.7 °F 29.9 °F 35.6 °F 96% 29.97 in 5.0 mi South 9.2 mph - N/A   Overcast
1:35 AM 36.9 °F 30.1 °F 35.8 °F 96% 29.97 in 5.0 mi SSW 9.2 mph - N/A   Overcast
1:55 AM 37.0 °F 33.3 °F 36.0 °F 96% 29.97 in 5.0 mi SW 4.6 mph - N/A   Overcast
2:15 AM 36.9 °F 33.1 °F 35.8 °F 96% 29.97 in 5.0 mi SSW 4.6 mph - N/A   Overcast
2:35 AM 36.5 °F 31.8 °F 35.6 °F 97% 29.97 in 5.0 mi SSW 5.8 mph - N/A   Overcast
2:55 AM 36.5 °F 33.9 °F 35.6 °F 97% 29.96 in 4.0 mi South 3.5 mph - N/A   Overcast
3:15 AM 36.5 °F 31.0 °F 35.8 °F 97% 29.94 in 4.0 mi South 6.9 mph - N/A   Overcast
3:35 AM 36.9 °F 30.7 °F 36.5 °F 99% 29.94 in 3.0 mi South 8.1 mph - N/A   Overcast
3:55 AM 37.0 °F 31.6 °F 36.9 °F 99% 29.93 in 2.0 mi South 6.9 mph - N/A   Overcast
4:15 AM 36.9 °F 31.4 °F 36.9 °F 100% 29.92 in 1.8 mi South 6.9 mph - N/A   Overcast
4:35 AM 36.9 °F 32.2 °F 36.9 °F 100% 29.91 in 1.2 mi South 5.8 mph - N/A   Overcast
4:55 AM 36.9 °F 32.2 °F 36.9 °F 100% 29.91 in 1.0 mi South 5.8 mph - N/A   Overcast
5:15 AM 36.9 °F 30.1 °F 36.9 °F 100% 29.90 in 1.0 mi South 9.2 mph - N/A   Overcast
5:35 AM 37.2 °F 31.2 °F 37.2 °F 100% 29.89 in 1.2 mi South 8.1 mph - N/A   Overcast
5:55 AM 37.2 °F 31.9 °F 37.2 °F 100% 29.89 in 1.2 mi South 6.9 mph - N/A   Overcast
6:15 AM 37.4 °F 31.4 °F 37.4 °F 100% 29.88 in 1.5 mi South 8.1 mph - N/A   Overcast
6:35 AM 37.4 °F 32.1 °F 37.4 °F 100% 29.89 in 1.5 mi South 6.9 mph - N/A   Overcast
6:55 AM 37.4 °F 30.8 °F 37.4 °F 100% 29.88 in 1.8 mi South 9.2 mph - N/A   Overcast
7:15 AM 37.4 °F 32.1 °F 37.4 °F 100% 29.89 in 2.5 mi SSW 6.9 mph - N/A   Overcast
7:35 AM 37.8 °F 31.8 °F 37.8 °F 100% 29.88 in 3.0 mi SSW 8.1 mph - N/A   Overcast
7:55 AM 38.3 °F 31.4 °F 38.3 °F 100% 29.87 in 3.0 mi South 10.4 mph - N/A   Overcast
8:15 AM 38.7 °F 32.9 °F 38.7 °F 100% 29.86 in 2.0 mi SSW 8.1 mph - N/A   Overcast
8:35 AM 39.9 °F 33.9 °F 39.9 °F 100% 29.86 in 2.5 mi SW 9.2 mph - N/A   Overcast
8:55 AM 40.5 °F 33.2 °F 40.1 °F 99% 29.84 in 3.0 mi SSW 12.7 mph - N/A   Overcast
9:15 AM 41.0 °F 35.8 °F 40.3 °F 97% 29.85 in 3.0 mi SSW 8.1 mph - N/A   Overcast
9:35 AM 41.9 °F 36.3 °F 41.0 °F 97% 29.85 in 3.0 mi SSW 9.2 mph - N/A   Overcast
9:55 AM 42.8 °F 35.4 °F 41.4 °F 95% 29.83 in 3.0 mi SSW 15.0 mph 19.6 mph N/A   Overcast
10:15 AM 43.0 °F 35.1 °F 41.7 °F 95% 29.83 in 3.0 mi SSW 17.3 mph - N/A   Overcast
10:35 AM 43.7 °F 35.7 °F 41.7 °F 93% 29.83 in 3.0 mi SSW 18.4 mph - N/A   Overcast
10:55 AM 43.9 °F 35.7 °F 41.7 °F 92% 29.82 in 5.0 mi SSW 19.6 mph 23.0 mph N/A   Overcast
11:15 AM 44.1 °F 35.7 °F 41.9 °F 92% 29.81 in 3.0 mi SSW 20.7 mph - N/A   Overcast
11:35 AM 44.6 °F 37.4 °F 41.9 °F 90% 29.81 in 5.0 mi SSW 16.1 mph 23.0 mph N/A   Overcast
11:55 AM 45.5 °F 38.9 °F 42.1 °F 88% 29.81 in 7.0 mi SSW 15.0 mph - N/A   Overcast
12:15 PM 45.7 °F 38.3 °F 41.9 °F 87% 29.80 in 7.0 mi SSW 18.4 mph - N/A   Overcast
12:35 PM 45.9 °F 39.1 °F 41.9 °F 86% 29.79 in 7.0 mi SSW 16.1 mph - N/A   Overcast
12:55 PM 46.2 °F 39.3 °F 42.3 °F 86% 29.77 in 7.0 mi SW 17.3 mph - N/A   Overcast
1:15 PM 47.1 °F - 42.4 °F 84% 29.77 in 7.0 mi SW 13.8 mph - N/A   Mostly Cloudy
1:35 PM 48.7 °F - 42.4 °F 79% 29.75 in 10.0 mi SSW 13.8 mph - N/A   Scattered Clouds
1:55 PM 50.4 °F - 42.4 °F 74% 29.74 in 10.0 mi SSW 12.7 mph - N/A   Clear
2:15 PM 51.6 °F - 42.1 °F 70% 29.73 in 10.0 mi SSW 12.7 mph - N/A   Clear
2:35 PM 52.7 °F - 42.1 °F 67% 29.72 in 10.0 mi SW 16.1 mph - N/A   Clear
2:55 PM 53.6 °F - 42.8 °F 67% 29.71 in 10.0 mi SSW 12.7 mph - N/A   Clear
3:15 PM 53.8 °F - 43.2 °F 67% 29.70 in 10.0 mi SSW 11.5 mph - N/A   Clear
3:55 PM 53.8 °F - 45.1 °F 73% 29.69 in 10.0 mi South 11.5 mph - N/A   Clear
4:15 PM 54.0 °F - 48.2 °F 81% 29.69 in 10.0 mi SSW 17.3 mph 20.7 mph N/A   Mostly Cloudy
4:35 PM 53.4 °F - 48.2 °F 82% 29.69 in 10.0 mi SSW 13.8 mph - N/A   Overcast
4:55 PM 52.7 °F - 48.9 °F 87% 29.68 in 10.0 mi SSW 12.7 mph - N/A   Overcast
5:15 PM 51.6 °F - 48.9 °F 90% 29.67 in 7.0 mi South 15.0 mph - N/A   Overcast
5:35 PM 51.3 °F - 49.6 °F 94% 29.67 in 5.0 mi South 16.1 mph - N/A   Overcast
5:55 PM 50.9 °F - 49.6 °F 95% 29.66 in 5.0 mi South 16.1 mph - N/A   Overcast
6:15 PM 50.9 °F - 49.6 °F 95% 29.65 in 7.0 mi South 13.8 mph - N/A   Overcast
6:35 PM 51.1 °F - 50.0 °F 96% 29.65 in 7.0 mi South 12.7 mph - N/A   Overcast
6:55 PM 51.8 °F - 50.5 °F 95% 29.65 in 7.0 mi South 10.4 mph - N/A   Overcast
7:15 PM 52.0 °F - 50.9 °F 96% 29.64 in 7.0 mi South 11.5 mph - N/A   Overcast
7:35 PM 53.1 °F - 51.8 °F 95% 29.64 in 7.0 mi South 15.0 mph - N/A   Overcast
7:55 PM 54.1 °F - 52.2 °F 93% 29.64 in 10.0 mi South 13.8 mph - N/A   Overcast
8:15 PM 54.7 °F - 52.9 °F 94% 29.63 in 10.0 mi South 20.7 mph 26.5 mph N/A   Overcast
8:35 PM 54.9 °F - 52.7 °F 92% 29.62 in 10.0 mi South 19.6 mph 25.3 mph N/A   Overcast
8:55 PM 54.9 °F - 52.0 °F 90% 29.62 in 10.0 mi South 20.7 mph 25.3 mph N/A   Overcast
9:15 PM 54.5 °F - 51.6 °F 90% 29.63 in 10.0 mi South 19.6 mph 26.5 mph N/A   Overcast
9:35 PM 54.7 °F - 51.3 °F 88% 29.62 in 10.0 mi South 21.9 mph - N/A   Overcast
9:55 PM 54.7 °F - 50.9 °F 87% 29.62 in 10.0 mi SSW 19.6 mph 31.1 mph N/A   Overcast
10:15 PM 54.0 °F - 50.4 °F 88% 29.63 in 10.0 mi South 18.4 mph 23.0 mph N/A   Overcast
10:35 PM 53.6 °F - 50.4 °F 89% 29.63 in 10.0 mi SSW 18.4 mph - N/A   Overcast
10:55 PM 53.1 °F - 50.0 °F 89% 29.63 in 10.0 mi SSW 17.3 mph - N/A   Overcast
11:15 PM 52.9 °F - 50.0 °F 90% 29.63 in 10.0 mi SSW 16.1 mph - N/A   Overcast
11:35 PM 52.5 °F - 50.0 °F 91% 29.62 in 7.0 mi SSW 13.8 mph - N/A   Overcast
11:55 PM 51.8 °F - 50.2 °F 94% 29.61 in 5.0 mi South 15.0 mph - N/A   Overcast